Location: Blairvadach
(56.2780°N, 6.9720°W)
Time: 11:35:20
(UTC+00:00)

Envisat - Pass Details

Date: 17 November 2019
Orbit: 764 x 766 km, 98.1° (Epoch: 10 December)

Event Time Altitude Azimuth Distance (km) Brightness Sun altitude
Rises 07:09:53 0° 17° (NNE) 3,248 6.2 -8.1°
Reaches altitude 10° 07:12:16 10° 23° (NNE) 2,316 5.5 -7.8°
Maximum altitude 07:17:16 53° 100° (E) 944 4.0 -7.1°
Drops below altitude 10° 07:22:13 10° 177° (S) 2,299 5.9 -6.5°
Sets 07:24:34 0° 182° (S) 3,221 6.6 -6.2°
